This is the latest recevied weather packets stored in our database for station/object KI5GCD-13. If no packets are shown the sender has not sent any weather packets the latest 10 day(s).
| Time | Temp. | Humidity | Pressure | Rain* | Wind** | Luminosity | Snow |
|---|---|---|---|---|---|---|---|
| 1777923587 | 25.56° C | 54% | 1003.1 hPa | 0 mm | 2.24 m/s, 278° | - | - |
| 1777923287 | 25.56° C | 56% | 1003.2 hPa | 0 mm | 2.68 m/s, 194° | - | - |
| 1777922987 | 25.56° C | 54% | 1003.2 hPa | 0 mm | 4.02 m/s, 232° | - | - |
| 1777922687 | 25.56° C | 56% | 1003.2 hPa | 0 mm | 2.24 m/s, 169° | - | - |
| 1777922387 | 25.56° C | 57% | 1003.1 hPa | 0 mm | 2.68 m/s, 243° | - | - |
| 1777922087 | 25.56° C | 55% | 1003.4 hPa | 0 mm | 4.47 m/s, 239° | - | - |
| 1777921787 | 25.56° C | 55% | 1003.6 hPa | 0 mm | 3.58 m/s, 199° | - | - |
| 1777921487 | 25° C | 55% | 1003.5 hPa | 0 mm | 3.13 m/s, 176° | - | - |
| 1777921188 | 25° C | 56% | 1003.3 hPa | 0 mm | 3.58 m/s, 228° | - | - |
| 1777920887 | 25° C | 56% | 1003.5 hPa | 0 mm | 4.02 m/s, 157° | - | - |
| 1777920587 | 25° C | 56% | 1003.5 hPa | 0 mm | 2.68 m/s, 207° | - | - |
| 1777920287 | 25.56° C | 55% | 1003.5 hPa | 0 mm | 2.24 m/s, 168° | - | - |
| 1777919987 | 25.56° C | 55% | 1003.5 hPa | 0 mm | 4.47 m/s, 242° | - | - |
| 1777919687 | 25° C | 56% | 1003.5 hPa | 0 mm | 2.24 m/s, 205° | - | - |
| 1777919387 | 25.56° C | 58% | 1003.7 hPa | 0 mm | 1.79 m/s, 219° | - | - |
| 1777919087 | 25° C | 58% | 1003.7 hPa | 0 mm | 1.79 m/s, 172° | - | - |
| 1777918787 | 25.56° C | 55% | 1003.7 hPa | 0 mm | 1.34 m/s, 234° | - | - |
| 1777918487 | 25° C | 55% | 1003.6 hPa | 0 mm | 2.24 m/s, 187° | - | - |
| 1777918187 | 25° C | 56% | 1003.7 hPa | 0 mm | 1.34 m/s, 216° | - | - |
| 1777917887 | 24.44° C | 55% | 1003.9 hPa | 0 mm | 2.68 m/s, 231° | - | - |
| 1777917588 | 24.44° C | 54% | 1004.1 hPa | 0 mm | 3.58 m/s, 222° | - | - |
| 1777917287 | 24.44° C | 54% | 1004.2 hPa | 0 mm | 5.81 m/s, 176° | - | - |
| 1777916987 | 24.44° C | 54% | 1004.1 hPa | 0 mm | 3.58 m/s, 231° | - | - |
| 1777916688 | 24.44° C | 55% | 1004.4 hPa | 0 mm | 3.58 m/s, 165° | - | - |
| 1777916387 | 24.44° C | 55% | 1004.2 hPa | 0 mm | 2.24 m/s, 199° | - | - |
* Rain latest hour (hover to see other rain measurements)
** Current wind speed in m/s (hover to see current wind gust speed)